Epoch 2004 Nov. 11.0 TT = JDT 2453320.5
T 2004 Nov. 10.28313 TT                                 MPC
q   1.2276345            (2000.0)            P               Q
n   0.18516734     Peri.  356.36230     +0.88227181     -0.40357720
a   3.0485486      Node    31.25260     +0.44282718     +0.53691473
e   0.5973052      Incl.   27.84483     +0.15968888     +0.74084278
P   5.32
Residuals in seconds of arc
900323 261  0.2+  0.3-    041015 423  0.2-  0.0     041108 379  0.2-  0.2-
900323 261  0.0   0.4-    041015 423  0.0   0.0     041108 379  0.5+  0.1-
000315 704  0.6+  0.5+    041015 423  0.1-  0.1+    041108 379  0.1+  0.1-
000315 704  0.1-  0.2+    041015 423  0.2+  0.1-    041108 379  0.0   0.3-
000315 704  0.3+  0.3+    041018 452  0.1+  0.3+    041108 379  0.4+  0.2-
000315 704  1.1-  1.3+    041018 452  0.2+  0.0     041108 379  0.4-  0.0
000326 704  0.2+  0.0     041018 452  0.1-  0.1+    041108 379  0.1-  0.3-
000326 704  0.2-  0.5+    041018 452  0.1+  0.1-    041108 379  0.4+  0.3-
000326 704  0.4+  0.0     041018 452  0.1+  0.0     041109 379  0.2-  0.1-
000326 704  0.2+  0.6+    041023 423  0.1+  0.2-    041109 379  0.5-  0.5-
000410 699  0.4+  0.6+    041023 423  0.1+  0.1-    041109 379  0.4-  0.5-
000410 699  0.0   0.2-    041023 423  0.0   0.1+    041109 379  0.0   0.6-
000410 699  0.6-  0.2-    041023 423  0.1+  0.2-    041109 379  0.5-  0.3-
000410 699  0.7-  0.1-    041023 423  0.0   0.2-    041109 379  0.2+  0.1+
000430 704  0.3+  0.0     041030 952  0.1-  0.2-    041109 379  0.2+  0.0
000430 704  1.2+  1.5+    041030 952  0.3-  0.0     041110 I77  0.1+  0.0
000430 704  0.4+  0.3-    041030 952  0.4-  0.3-    041110 I77  0.2-  0.4-
000430 704  1.3+  1.2+    041030 952  0.4-  0.0     041110 I77  0.5+  0.1+
010323 608  0.4+  0.3-    041030 952  0.6-  0.2+    041110 I77  0.2+  0.2+
010323 608  1.0+  0.2+    041030 952  0.4-  0.2-    041111 704  0.1-  0.9+
010323 608  1.2+  0.5-    041030 952  0.4-  0.0     041111 704  0.1-  0.8+
010414 608  0.8+  0.0     041101 379  0.2+  0.2-    041111 704  0.2+  1.0+
010414 608  1.1+  0.5+    041101 379  0.0   0.2-    041111 704  0.5-  1.1+
010414 608  1.4+  1.6+    041101 379  0.1-  0.5-    041111 704  0.2-  1.2+
020408 644  0.1+  0.1+    041101 379  0.4+  0.3-    041112 I05  0.2+  0.0
020408 644  0.1+  0.9+    041101 379  0.4+  0.3-    041112 I05  0.1-  0.1+
020408 644  0.1+  0.3+    041101 379  0.3+  0.3-    041112 I05  0.1+  0.1-
020409 644  0.5+  0.4+    041101 379  0.2+  0.3-    041112 I05  0.2+  0.0
020409 644  0.1+  0.6+    041102 379  0.4-  0.3-    041112 379  0.3-  0.3+
020409 644  0.5+  0.8+    041102 379  0.5-  0.6-    041112 379  0.6+  0.4-
020414 644  0.3+  0.4+    041102 379  0.2+  0.1+    041112 379  0.4+  0.2-
020414 644  0.6+  0.6+    041102 379  0.1-  0.3-    041112 379  0.1-  0.0
020414 644  0.4-  0.7+    041102 379  0.1-  0.0     041112 379  0.3+  0.6+
020509 644  0.4-  0.2+    041102 379  0.5-  0.2+    041112 J87  0.5+  0.9+
020509 644  0.3+  0.8+    041102 379  0.1+  0.5-    041112 J87  0.4+  0.5+
020509 644  0.7+  0.4+    041102 379  0.5-  0.1+    041112 J87  0.5+  0.6+
020518 644  0.7-  0.0     041102 379  0.2-  0.2+    041112 213  0.8-  0.2-
020518 644  0.3+  0.4+    041103 423  0.1-  0.0     041112 213  0.2+  0.5+
020518 644  0.2-  0.1+    041103 423  0.0   0.0     041112 213  0.3+  0.3+
030124 809 (1.4+  2.1+)   041103 423  0.1-  0.0     041112 941  0.1+  0.2+
030124 809  0.7+  0.8+    041103 423  0.0   0.0     041112 941  0.1+  0.4+
030124 809  0.5-  0.2-    041103 423  0.0   0.1-    041112 941  0.3+  0.2+
041010 E12  0.1+  0.1+    041103 423  0.0   0.1-    041112 941  0.1+  0.2+
041010 E12  0.1-  0.0     041103 355  0.0   0.1-    041113 927 (4.2+ 17.6+)
041010 E12  0.1-  0.1+    041103 355  0.1-  0.0     041113 927 (0.5+ 19.3+)
041010 E12  0.1-  0.1+    041103 355  0.1+  0.3+    041113 927 (3.8+ 15.4+)
041010 E12  0.1+  0.0     041103 355  0.0   0.1-    041113 D70  0.2+  0.4+
041010 E12  0.1+  0.2-    041104 379  0.4+  0.4-    041113 D70  0.1+  0.5+
041010 E12  0.4+  0.2+    041104 379  0.4+  0.3-    041113 D70  0.1-  0.2-
041010 E12  0.2-  0.0     041104 379  0.6+  0.5-    041113 349  0.2-  0.1-
041010 E12  0.0   0.2+    041104 355  0.3+  0.1-    041113 349  0.2+  0.2-
041010 E12  0.1-  0.4+    041104 379  0.5+  0.6-    041113 349  0.0   0.1+
041010 E12  0.2+  0.0     041104 379  0.5+  0.2-    041113 349  0.2-  0.0
041010 E12  0.1+  0.3+    041104 355  0.2+  0.1+    041113 349  0.0   0.0
041010 I05  0.4-  0.1+    041104 379  0.1-  0.8-    041113 941  0.1+  0.1+
041010 I05  0.4-  0.2+    041104 379  0.3+  0.2-    041113 941  0.1+  0.1+
041010 I05  0.3-  0.1+    041104 355  0.0   0.0     041113 941  0.2+  0.1-
041010 I05  0.3-  0.0     041104 379  0.6+  0.7-    041113 941  0.0   0.0
041010 I05  0.4-  0.1+    041104 355  0.2+  0.0     041113 938  0.1-  0.2-
041010 I05  0.4-  0.4+    041105 704  0.3-  0.1-    041113 938  0.0   0.1-
041011 808  0.0   0.8+    041105 699  0.3-  0.4-    041113 938  0.1-  0.2-
041011 808  0.2-  0.0     041105 704  0.0   0.2-    041113 213  0.1+  0.3+
041011 808  0.2-  0.1+    041105 699  0.3-  0.6-    041113 939  0.2-  0.6+
041011 808  0.2+  0.2+    041105 704  0.4-  0.5-    041113 939  0.2-  0.7+
041011 808 (0.5-  2.0+)   041105 704  0.1-  0.4-    041113 213  0.3-  0.4+
041011 808  0.4-  0.8+    041105 699  0.1-  0.5-    041113 939  0.1-  0.7+
041011 808  0.3-  1.9+    041105 704  0.2-  0.4-    041113 213  0.0   0.4+
041011 808  0.4+  0.8-    041105 699  0.7-  0.5+    041113 213  0.1-  0.3+
041011 808  0.3-  0.9+    041105 699  0.1-  0.3-    041113 A59  0.3-  1.3-
041011 E12  0.2-  0.2+    041105 699  0.7-  0.2-    041113 A59  0.8+  1.2-
041011 E12  0.2+  0.1-    041105 699  0.1-  0.3-    041113 A59  0.8-  0.3-
041011 E12  0.2+  0.1+    041105 699  0.4-  0.3-    041113 A59 (2.3-  0.1+)
041011 E12  0.3+  0.2-    041106 670  0.1+  0.0     041113 A06  0.1-  1.0+
041011 428  0.1+  0.1+    041106 670  0.2+  0.1-    041113 A06  0.5+  1.4+
041011 428  0.2+  0.1+    041106 670  0.1+  0.1-    041113 A06  0.8+  0.9+
041011 428  0.0   0.2+    041106 379  0.2+  0.0     041113 A06  0.5+  1.4+
041011 428  0.7-  0.1+    041106 379  0.3+  0.0     041113 J93  0.3-  0.4+
041011 423  0.3-  0.1+    041106 379  0.1-  0.1-    041113 J93  0.0   0.2+
041011 423  0.1+  0.2+    041106 379  0.0   0.0     041113 J93  0.5-  0.1-
041011 423  0.0   0.2+    041106 379  0.1+  0.4-    041114 850  0.4+  0.2+
041011 423  0.1+  0.2+    041106 379  0.4+  0.2-    041114 850  0.1-  0.5+
041011 423  0.1+  0.4+    041106 938  0.1+  0.1-    041114 850  0.4+  0.0
041011 E12  0.3+  0.2+    041106 938  0.1+  0.1+    041114 170  0.2-  0.2-
041011 E12  0.0   0.2+    041106 938  0.0   0.1+    041114 170  0.0   0.2-
041011 E12  0.4-  0.2-    041106 938  0.1+  0.3-    041114 170  0.1+  0.2-
041012 423  0.0   0.2+    041106 938  0.1+  0.1-    041114 170  0.0   0.3-
041012 423  0.1-  0.2+    041106 938  0.1+  0.2-    041114 170  0.3-  0.2-
041012 423  0.1+  0.3+    041107 704  0.7-  0.1+    041114 170  0.3-  0.1-
041012 423  0.2-  0.1+    041107 704  0.6-  0.8+    041114 170  0.2-  0.1-
041012 423  0.6-  0.4-    041107 704  0.8-  0.1+    041114 458  0.5+  0.2+
041012 423  0.0   0.2+    041107 704  0.3+  0.5+    041114 458  0.4+  0.2+
041012 423  0.4+  0.3+    041107 379  0.8-  0.6-    041114 458  0.3+  0.4+
041012 I05  0.0   0.4+    041107 379  0.6-  0.7-    041115 415  0.1+  0.2-
041012 I05  0.0   0.3+    041107 379  0.5-  0.2-    041115 415  0.1-  0.1+
041012 I05  0.1-  0.3+    041107 379  0.4-  0.4-    041115 415  0.1+  0.3-
041015 423  0.1-  0.1+    041108 379  0.3+  0.0     041115 415  0.0   0.3-

Ephemeris:
    P/2004 TU12 (Siding Spring)
Date    TT    R. A. (2000) Decl.     Delta      r     Elong.  Phase   m1    m2
2004 11 11    22 50.63   -11 25.4    0.456    1.228   110.7    49.0  14.2
2004 11 21    23 01.38   +01 29.3    0.495    1.234   108.0    49.6  14.4
2004 12 01    23 15.80   +12 33.8    0.555    1.252   105.2    49.4  14.7
2004 12 11    23 33.48   +21 38.5    0.631    1.281   102.7    48.6  15.1
2004 12 21    23 54.35   +28 58.6    0.718    1.319   100.5    47.2  15.5
2004 12 31    00 18.32   +34 54.0    0.814    1.366    98.5    45.4  15.9
2005 01 10    00 45.34   +39 41.0    0.917    1.419    96.6    43.5  16.3
2005 01 20    01 15.35   +43 31.8    1.027    1.478    94.6    41.6  16.8
2005 01 30    01 48.06   +46 33.8    1.142    1.542    92.6    39.7  17.2
2005 02 09    02 23.05   +48 51.6    1.264    1.609    90.4    37.8  17.6
2005 02 19    02 59.70   +50 28.6    1.392    1.678    87.9    36.1  18.0
2005 03 01    03 37.20   +51 27.5    1.526    1.749    85.2    34.4  18.3
2005 03 11    04 14.68   +51 51.6    1.666    1.822    82.3    32.7  18.7
2005 03 21    04 51.38   +51 44.7    1.811    1.895    79.1    31.1  19.1
2005 03 31    05 26.64   +51 11.3    1.960    1.968    75.7    29.5  19.4
2005 04 10    06 00.04   +50 15.7    2.113    2.041    72.1    27.8  19.7
2005 04 20    06 31.40   +49 02.5    2.269    2.114    68.3    26.2  20.0
2005 04 30    07 00.64   +47 35.5    2.426    2.187    64.3    24.5  20.3
2005 05 10    07 27.86   +45 58.2    2.583    2.259    60.2    22.8  20.6
2005 05 20    07 53.22   +44 13.4    2.740    2.330    56.0    21.1  20.9
2005 05 30    08 16.85   +42 23.5    2.893    2.400    51.7    19.3  21.1
2005 06 09    08 38.97   +40 30.3    3.043    2.470    47.3    17.6  21.3
2005 06 19    08 59.73   +38 35.4    3.188    2.538    42.8    15.8  21.6
2005 06 29    09 19.29   +36 40.0    3.325    2.605    38.3    14.0  21.8
2005 07 09    09 37.80   +34 45.1    3.455    2.671    33.9    12.3  22.0

Brian G. Marsden             (C) Copyright 2004 MPC           M.P.E.C. 2004-V75

Read MPEC 2004-V74 Read MPEC 2004-V76


Our Web policy. Index to the CBAT/MPC/ICQ pages.

